Flag for U.S.A. Weather past 2 weeks in Oceanside, California, U.S.A.

Now
62 °F

Low clouds.


Feels Like: 62 °F
Forecast: 58 / 75 °F
Wind: No wind

Location: Oceanside Weather Reporting Station

Current Time: May 29, 2015 at 3:56:48 AM

Latest Report: May 29, 2015 at 2:52 AM


Visibility: 9 mi

Pressure: 29.93 "Hg

Humidity: 83%

Dew point: 57 °F

Location of OceansideLocation

Historic Weather in Oceanside — Graph

°F

Oceanside temperature yesterday

Maximum temperature yesterday: 70 °F (at 2:52 PM)
Minimum temperature yesterday: 61 °F (at 6:52 AM)
Average temperature yesterday: 64 °F

Past Weeks' High & Low Weather Summary

 TemperatureHumidityPressure
High70 °F (May 23, 12:52 PM)93% (May 15, 12:52 AM)30.10 "Hg (May 15, 12:52 AM)
Low49 °F (May 14, 5:52 AM)49% (May 14, 11:52 AM)29.82 "Hg (May 15, 2:52 PM)
Average62 °F72%29.98 "Hg
* Reported May 14 1:04 AM — May 29 1:52 AM, Oceanside, Weather by CustomWeather, © 2015

Note: Actual official high and low records may vary slightly from our data, if they occured in-between our weather recording intervals... More about our weather records

Advertising

Oceanside weather history for previous 24 hours

 ConditionsComfort  
Time TempWeatherWind HumidityBarometerVisibility
1:52 AM
Fri, May 29
62 °FLow clouds.7 mph83%29.94 "Hg9 mi
12:52 AM62 °FOvercast.3 mph83%29.95 "Hg9 mi
11:52 PM
Thu, May 28
63 °FOvercast.No wind81%29.95 "Hg9 mi
10:52 PM63 °FOvercast.5 mph78%29.96 "Hg10 mi
9:52 PM63 °FOvercast.No wind81%29.95 "Hg10 mi
8:52 PM63 °FOvercast.No wind81%29.94 "Hg10 mi
7:52 PM63 °FOvercast.5 mph78%29.93 "Hg9 mi
6:52 PM63 °FOvercast.7 mph78%29.93 "Hg10 mi
5:52 PM66 °FSunny.9 mph70%29.90 "Hg10 mi
4:52 PM67 °FPassing clouds.6 mph68%29.92 "Hg10 mi
3:52 PM68 °FSunny.13 mph65%29.93 "Hg10 mi
2:52 PM70 °FSunny.12 mph61%29.94 "Hg10 mi
1:52 PM69 °FSunny.8 mph63%29.96 "Hg9 mi
12:52 PM69 °FOvercast.6 mph63%29.98 "Hg9 mi
11:52 AM68 °FOvercast.7 mph65%29.99 "Hg9 mi
10:52 AM66 °FOvercast.7 mph70%30.00 "Hg9 mi
9:52 AM64 °FOvercast.No wind73%29.99 "Hg10 mi
8:52 AM64 °FOvercast.3 mph73%29.99 "Hg9 mi
7:52 AM62 °FOvercast.5 mph78%29.98 "Hg8 mi
6:52 AM61 °FOvercast.5 mph83%29.97 "Hg8 mi
5:52 AM62 °FOvercast.No wind78%29.96 "Hg10 mi
4:52 AM62 °FOvercast.No wind78%29.94 "Hg10 mi
3:52 AM62 °FOvercast.No wind78%29.94 "Hg10 mi
Weather by CustomWeather, © 2015

See weather overviewHow to use our weather pages